Weather History for Valdez Airport, AK

Change the Weather History Date:

Thursday, January 2, 2014

  Actual Average Record
Temperature  
Mean Temperature 24 °F -  
Max Temperature 33 °F 26 °F 39 °F (1981)
Min Temperature 14 °F 17 °F -2 °F (1969)
Degree Days  
Heating Degree Days 42    
Moisture  
Dew Point 25 °F    
Average Humidity 90    
Maximum Humidity 100    
Minimum Humidity 73    
Precipitation  
Precipitation 0.06 in - - ()
Sea Level Pressure  
Sea Level Pressure 29.84 in    
Wind  
Wind Speed 1 mph (ENE)    
Max Wind Speed 9 mph    
Max Gust Speed -    
Visibility 8 miles    
Events Fog    
Averages and records for this station are not official NWS values.
T = Trace of Precipitation, MM = Missing Value Source: NWS Daily Summary

Daily Weather History Graph

Daily Weather History Graph

Search for Another Location

Airport:

Trip Planner

Search our weather history database for the weather conditions in past years. The results will help you decide how hot, cold, wet, or windy it might be!

Date:

Astronomy

Jan. 02, 2014 Rise Set
Actual Time 9:57 AM AKST 3:41 PM AKST
Civil Twilight 8:57 AM AKST 4:41 PM AKST
Nautical Twilight 7:58 AM AKST 5:40 PM AKST
Astronomical Twilight 7:05 AM AKST 6:33 PM AKST
Moon 10:03 AM AKST (1/2) 6:38 PM AKST (1/2)
Length of Visible Light 7h 44m
Length of Day
5h 43m
Waxing Crescent, 3% of the Moon is Illuminated
Jan 2
Waxing Crescent
Jan 7
First Quarter
Jan 15
Full
Jan 23
Last Quarter
Jan 30
New

Hourly Weather History & Observations

Time (AKST) Temp. Windchill Dew Point Humidity Pressure Visibility Wind Dir Wind Speed Gust Speed Precip Events Conditions
12:16 AM 33.8 °F - 30.2 °F 87% 29.59 in 4.0 mi Calm Calm - 0.03 in   Overcast
12:36 AM 33.8 °F - 28.4 °F 81% 29.60 in 10.0 mi Calm Calm - 0.04 in   Mostly Cloudy
12:56 AM 33.8 °F - 32.0 °F 93% 29.61 in 10.0 mi Calm Calm - 0.04 in   Overcast
1:16 AM 33.8 °F - 28.4 °F 81% 29.61 in 10.0 mi Calm Calm - N/A   Overcast
1:36 AM 33.8 °F - 30.2 °F 87% 29.62 in 10.0 mi Calm Calm - N/A   Overcast
1:56 AM 33.8 °F - 33.8 °F 100% 29.63 in 10.0 mi Calm Calm - N/A   Overcast
2:16 AM 33.8 °F - 32.0 °F 93% 29.64 in 4.0 mi Calm Calm - N/A   Overcast
2:36 AM 33.8 °F - 33.8 °F 100% 29.64 in 8.0 mi Calm Calm - 0.02 in   Overcast
2:56 AM 33.8 °F 30.8 °F 30.2 °F 87% 29.65 in 10.0 mi NNW 3.5 mph - 0.02 in   Overcast
3:16 AM 33.8 °F 30.8 °F 30.2 °F 87% 29.65 in 10.0 mi NNW 3.5 mph - N/A   Overcast
3:36 AM 33.8 °F - 30.2 °F 87% 29.66 in 10.0 mi Calm Calm - N/A   Overcast
3:56 AM 33.8 °F - 30.2 °F 87% 29.66 in 10.0 mi Calm Calm - N/A   Overcast
4:16 AM 33.8 °F - 30.2 °F 87% 29.66 in 10.0 mi Calm Calm - N/A   Overcast
4:36 AM 33.8 °F - 30.2 °F 87% 29.67 in 10.0 mi Calm Calm - N/A   Overcast
4:56 AM 33.8 °F - 28.4 °F 81% 29.67 in 8.0 mi Calm Calm - N/A   Overcast
5:16 AM 33.8 °F - 32.0 °F 93% 29.67 in 8.0 mi Calm Calm - N/A   Overcast
5:36 AM 33.8 °F - 33.8 °F 100% 29.68 in 10.0 mi Calm Calm - N/A   Mostly Cloudy
5:56 AM 33.8 °F - 30.2 °F 87% 29.69 in 10.0 mi Calm Calm - N/A   Overcast
6:16 AM 33.8 °F - 32.0 °F 93% 29.70 in 6.0 mi Calm Calm - N/A   Overcast
6:36 AM 33.8 °F - 32.0 °F 93% 29.70 in 6.0 mi Calm Calm - N/A   Overcast
6:56 AM 33.8 °F - 30.2 °F 87% 29.71 in 8.0 mi Calm Calm - N/A   Mostly Cloudy
7:16 AM 33.8 °F - 30.2 °F 87% 29.71 in 8.0 mi Calm Calm - N/A   Mostly Cloudy
7:36 AM 33.8 °F - 30.2 °F 87% 29.72 in 8.0 mi Calm Calm - N/A   Mostly Cloudy
7:56 AM 33.8 °F - 30.2 °F 87% 29.73 in 9.0 mi Calm Calm - N/A   Mostly Cloudy
8:16 AM 33.8 °F - 33.8 °F 100% 29.74 in 9.0 mi Calm Calm - N/A   Mostly Cloudy
8:36 AM 33.8 °F - 33.8 °F 100% 29.75 in 9.0 mi Calm Calm - N/A   Mostly Cloudy
8:56 AM 32.0 °F - 32.0 °F 100% 29.75 in 9.0 mi Calm Calm - N/A   Mostly Cloudy
9:16 AM 33.8 °F - 32.0 °F 93% 29.76 in 9.0 mi Calm Calm - N/A   Mostly Cloudy
9:36 AM 32.0 °F - 32.0 °F 100% 29.78 in 9.0 mi Calm Calm - N/A   Mostly Cloudy
9:56 AM 32.0 °F - 30.2 °F 93% 29.78 in 5.0 mi Calm Calm - N/A   Mostly Cloudy
10:16 AM 32.0 °F - 30.2 °F 93% 29.80 in 5.0 mi Calm Calm - N/A   Mostly Cloudy
10:36 AM 33.8 °F - 30.2 °F 87% 29.81 in 5.0 mi Calm Calm - N/A   Mostly Cloudy
10:56 AM 30.2 °F 24.3 °F 28.4 °F 93% 29.81 in 1.0 mi East 5.8 mph - N/A   Mostly Cloudy
11:16 AM 32.0 °F - 30.2 °F 93% 29.82 in 1.0 mi Calm Calm - N/A   Mostly Cloudy
11:23 AM 32.0 °F - 30.2 °F 93% 29.83 in 0.2 mi Calm Calm - N/A Fog Fog
11:36 AM 30.2 °F - 28.4 °F 93% 29.83 in 0.2 mi Calm Calm - N/A   Mostly Cloudy
11:56 AM 30.2 °F 25.4 °F 30.2 °F 100% 29.84 in 0.2 mi NE 4.6 mph - N/A   Mostly Cloudy
12:16 PM 30.2 °F - 30.2 °F 100% 29.84 in 0.2 mi Calm Calm - N/A   Mostly Cloudy
12:36 PM 30.2 °F - 26.6 °F 86% 29.85 in 0.2 mi Calm Calm - N/A   Mostly Cloudy
12:56 PM 30.2 °F - 28.4 °F 93% 29.86 in 10.0 mi Calm Calm - N/A   Scattered Clouds
1:16 PM 30.2 °F - 28.4 °F 93% 29.87 in 10.0 mi Calm Calm - N/A   Scattered Clouds
1:36 PM 28.4 °F 23.3 °F 28.4 °F 100% 29.87 in 10.0 mi NE 4.6 mph - N/A   Scattered Clouds
1:56 PM 28.4 °F - 26.6 °F 93% 29.88 in 10.0 mi North - - N/A   Scattered Clouds
2:16 PM 28.4 °F - 24.8 °F 86% 29.89 in 10.0 mi Calm Calm - N/A   Scattered Clouds
2:36 PM 26.6 °F 21.2 °F 24.8 °F 93% 29.89 in 10.0 mi East 4.6 mph - N/A   Scattered Clouds
2:56 PM 28.4 °F - 26.6 °F 93% 29.90 in 10.0 mi Calm Calm - N/A   Scattered Clouds
3:16 PM 26.6 °F - 24.8 °F 93% 29.91 in 10.0 mi Calm Calm - N/A   Scattered Clouds
3:36 PM 24.8 °F 20.5 °F 23.0 °F 93% 29.91 in 10.0 mi East 3.5 mph - N/A   Scattered Clouds
3:56 PM 26.6 °F - 24.8 °F 93% 29.92 in 10.0 mi Calm Calm - N/A   Scattered Clouds
4:16 PM 24.8 °F 17.9 °F 19.4 °F 80% 29.93 in 10.0 mi ENE 5.8 mph - N/A   Scattered Clouds
4:36 PM 24.8 °F - 19.4 °F 80% 29.93 in 10.0 mi Calm Calm - N/A   Scattered Clouds
4:56 PM 24.8 °F - 23.0 °F 93% 29.94 in 10.0 mi Calm Calm - N/A   Scattered Clouds
5:16 PM 23.0 °F - 19.4 °F 86% 29.95 in 10.0 mi Calm Calm - N/A   Scattered Clouds
5:36 PM 21.2 °F 14.9 °F 19.4 °F 93% 29.96 in 10.0 mi NE 4.6 mph - N/A   Scattered Clouds
5:56 PM 21.2 °F - 15.8 °F 80% 29.97 in 10.0 mi Calm Calm - N/A   Scattered Clouds
6:16 PM 23.0 °F - 19.4 °F 86% 29.98 in 10.0 mi Calm Calm - N/A   Scattered Clouds
6:36 PM 17.6 °F 6.4 °F 12.2 °F 79% 29.99 in 10.0 mi East 9.2 mph - N/A   Scattered Clouds
6:56 PM 21.2 °F - 19.4 °F 93% 30.00 in 10.0 mi Calm Calm - N/A   Scattered Clouds
7:16 PM 21.2 °F 16.4 °F 19.4 °F 93% 30.00 in 10.0 mi East 3.5 mph - N/A   Scattered Clouds
7:36 PM 21.2 °F 13.6 °F 17.6 °F 86% 30.01 in 10.0 mi East 5.8 mph - N/A   Scattered Clouds
7:56 PM 17.6 °F 8.2 °F 15.8 °F 93% 30.02 in 10.0 mi ENE 6.9 mph - N/A   Clear
8:16 PM 21.2 °F - 14.0 °F 74% 30.02 in 10.0 mi Calm Calm - N/A   Clear
8:36 PM 19.4 °F - 15.8 °F 86% 30.03 in 10.0 mi Calm Calm - N/A   Clear
8:56 PM 17.6 °F 12.3 °F 17.6 °F 100% 30.04 in 10.0 mi East 3.5 mph - N/A   Clear
9:16 PM 19.4 °F - 19.4 °F 100% 30.05 in 10.0 mi Calm Calm - N/A   Partly Cloudy
9:36 PM 17.6 °F 10.7 °F 17.6 °F 100% 30.07 in 10.0 mi ENE 4.6 mph - N/A   Partly Cloudy
9:56 PM 15.8 °F 10.2 °F 12.2 °F 86% 30.07 in 10.0 mi East 3.5 mph - N/A   Clear
10:16 PM 14.0 °F - 6.8 °F 73% 30.07 in 10.0 mi Calm Calm - N/A   Clear
10:36 PM 19.4 °F 14.3 °F 14.0 °F 80% 30.09 in 10.0 mi East 3.5 mph - N/A   Clear
10:56 PM 17.6 °F - 15.8 °F 93% 30.09 in 10.0 mi Calm Calm - N/A   Clear
11:16 PM 17.6 °F - 12.2 °F 79% 30.10 in 10.0 mi Calm Calm - N/A   Clear
11:36 PM 19.4 °F - 17.6 °F 93% 30.10 in 10.0 mi Calm Calm - N/A   Clear
11:56 PM 19.4 °F - 15.8 °F 86% 30.10 in 10.0 mi Calm Calm - N/A   Clear